Location: Goettingen
(51.5300°N, 9.9433°E)
Time: 02:41:12
(UTC+01:00)

ISS - Pass Details

Date: 20 May 2017
Orbit: 402 x 406 km, 51.6° (Epoch: 16 December)

Event Time Altitude Azimuth Distance (km) Brightness Sun altitude
Exits shadow 02:16:26 38° 249° (WSW) 656 -3.1 -17.3°
Maximum altitude 02:17:35 79° 168° (SSE) 428 -3.9 -17.3°
Drops below altitude 10° 02:20:55 10° 82° (E) 1,487 -0.7 -17.1°
Sets 02:23:01 0° 81° (E) 2,347 0.4 -17.0°
